"datetime","temp","dp","rain_mm","uv","solar","mb","wind_mph","gust_mph","windchill","rh"
"2019-10-16 00:00:00",8.4,7.5,0.0,0.0,0,1004.2,0,0,"",94
"2019-10-16 00:01:00",8.4,7.5,0.0,0.0,0,1004.2,0,0,"",94
"2019-10-16 00:02:00",8.4,7.5,0.0,0.0,0,1004.2,0,0,"",94
"2019-10-16 00:03:00",8.4,7.3,0.0,0.0,0,1004.1,0,0,"",93
"2019-10-16 00:04:00",8.4,7.5,0.0,0.0,0,1004.2,0,0,"",94
"2019-10-16 00:05:00",8.3,7.4,0.0,0.0,0,1004.2,0,0,"",94
"2019-10-16 00:06:00",8.3,7.2,0.0,0.0,0,1004.2,0,0,"",93
"2019-10-16 00:07:00",8.3,7.4,0.0,0.0,0,1004.1,0,0,"",94
"2019-10-16 00:08:00",8.3,7.2,0.0,0.0,0,1004.1,0,0,"",93
"2019-10-16 00:09:00",8.3,7.2,0.0,0.0,0,1004.1,0,0,"",93
"2019-10-16 00:10:00",8.3,7.4,0.0,0.0,0,1004.1,0,0,"",94
"2019-10-16 00:11:00",8.3,7.2,0.0,0.0,0,1004.1,0,0,"",93
"2019-10-16 00:12:00",8.3,7.2,0.0,0.0,0,1004.0,0,0,"",93
"2019-10-16 00:13:00",8.3,7.2,0.0,0.0,0,1004.0,0,0,"",93
"2019-10-16 00:14:00",8.3,7.2,0.0,0.0,0,1004.0,0,0,"",93
"2019-10-16 00:15:00",8.3,7.2,0.0,0.0,0,1004.0,0,0,"",93
"2019-10-16 00:16:00",8.3,7.2,0.0,0.0,0,1004.0,0,0,"",93
"2019-10-16 00:17:00",8.3,7.4,0.0,0.0,0,1003.9,0,0,"",94
"2019-10-16 00:18:00",8.3,7.4,0.0,0.0,0,1003.9,0,0,"",94
"2019-10-16 00:19:00",8.3,7.4,0.0,0.0,0,1003.9,0,0,"",94
"2019-10-16 00:20:00",8.3,7.4,0.0,0.0,0,1003.9,0,0,"",94
"2019-10-16 00:21:00",8.3,7.4,0.0,0.0,0,1003.9,0,0,"",94
"2019-10-16 00:22:00",8.2,7.3,0.0,0.0,0,1003.9,0,0,"",94
"2019-10-16 00:23:00",8.2,7.3,0.0,0.0,0,1003.9,0,0,"",94
"2019-10-16 00:24:00",8.3,7.4,0.0,0.0,0,1003.8,0,0,"",94
"2019-10-16 00:25:00",8.3,7.4,0.0,0.0,0,1003.8,0,0,"",94
"2019-10-16 00:26:00",8.2,7.3,0.0,0.0,0,1003.8,0,0,"",94
"2019-10-16 00:27:00",8.2,7.3,0.0,0.0,0,1003.8,0,0,"",94
"2019-10-16 00:28:00",8.2,7.3,0.0,0.0,0,1003.8,0,0,"",94
"2019-10-16 00:29:00",8.2,7.3,0.0,0.0,0,1003.8,0,0,"",94
"2019-10-16 00:30:00",8.2,7.3,0.0,0.0,0,1003.7,0,0,"",94
"2019-10-16 00:31:00",8.2,7.3,0.0,0.0,0,1003.8,0,0,"",94
"2019-10-16 00:32:00",8.2,7.3,0.0,0.0,0,1003.7,0,0,"",94
"2019-10-16 00:33:00",8.2,7.3,0.0,0.0,0,1003.7,0,0,"",94
"2019-10-16 00:34:00",8.3,7.4,0.0,0.0,0,1003.7,0,0,"",94
"2019-10-16 00:35:00",8.2,7.3,0.0,0.0,0,1003.7,0,0,"",94
"2019-10-16 00:36:00",8.2,7.3,0.0,0.0,0,1003.7,0,0,"",94
"2019-10-16 00:37:00",8.3,7.4,0.0,0.0,0,1003.7,0,0,"",94
"2019-10-16 00:38:00",8.2,7.3,0.0,0.0,0,1003.7,0,0,"",94
"2019-10-16 00:39:00",8.2,7.3,0.0,0.0,0,1003.7,0,0,"",94
"2019-10-16 00:40:00",8.2,7.3,0.0,0.0,0,1003.7,0,0,"",94
"2019-10-16 00:41:00",8.3,7.4,0.0,0.0,0,1003.7,0,0,"",94
"2019-10-16 00:42:00",8.2,7.3,0.0,0.0,0,1003.7,0,0,"",94
"2019-10-16 00:43:00",8.2,7.3,0.0,0.0,0,1003.7,0,0,"",94
"2019-10-16 00:44:00",8.2,7.3,0.0,0.0,0,1003.7,0,0,"",94
"2019-10-16 00:45:00",8.2,7.3,0.0,0.0,0,1003.7,0,0,"",94
"2019-10-16 00:46:00",8.3,7.4,0.0,0.0,0,1003.6,0,0,"",94
"2019-10-16 00:47:00",8.2,7.3,0.0,0.0,0,1003.7,0,0,"",94
"2019-10-16 00:48:00",8.3,7.4,0.0,0.0,0,1003.7,0,0,"",94
"2019-10-16 00:49:00",8.3,7.4,0.0,0.0,0,1003.6,0,0,"",94
"2019-10-16 00:50:00",8.2,7.3,0.0,0.0,0,1003.6,0,0,"",94
"2019-10-16 00:51:00",8.3,7.4,0.0,0.0,0,1003.6,0,0,"",94
"2019-10-16 00:52:00",8.3,7.4,0.0,0.0,0,1003.6,0,0,"",94
"2019-10-16 00:53:00",8.3,7.4,0.0,0.0,0,1003.6,0,0,"",94
"2019-10-16 00:54:00",8.3,7.4,0.0,0.0,0,1003.6,0,0,"",94
"2019-10-16 00:55:00",8.3,7.4,0.0,0.0,0,1003.6,0,0,"",94
"2019-10-16 00:56:00",8.3,7.4,0.0,0.0,0,1003.5,0,0,"",94
"2019-10-16 00:57:00",8.3,7.4,0.0,0.0,0,1003.5,0,0,"",94
"2019-10-16 00:58:00",8.3,7.4,0.0,0.0,0,1003.5,0,0,"",94
"2019-10-16 00:59:00",8.3,7.4,0.0,0.0,0,1003.5,0,0,"",94
"2019-10-16 01:00:00",8.3,7.4,0.0,0.0,0,1003.4,0,0,"",94
"2019-10-16 01:01:00",8.3,7.4,0.0,0.0,0,1003.4,0,0,"",94
"2019-10-16 01:02:00",8.3,7.4,0.0,0.0,0,1003.4,0,0,"",94
"2019-10-16 01:03:00",8.3,7.4,0.0,0.0,0,1003.4,0,0,"",94
"2019-10-16 01:04:00",8.3,7.4,0.0,0.0,0,1003.4,0,0,"",94
"2019-10-16 01:05:00",8.3,7.5,0.0,0.0,0,1003.3,0,0,"",95
"2019-10-16 01:06:00",8.3,7.5,0.0,0.0,0,1003.3,0,0,"",95
"2019-10-16 01:07:00",8.3,7.5,0.0,0.0,0,1003.3,0,0,"",95
"2019-10-16 01:08:00",8.3,7.5,0.0,0.0,0,1003.3,0,0,"",95
"2019-10-16 01:09:00",8.3,7.5,0.0,0.0,0,1003.2,0,0,"",95
"2019-10-16 01:10:00",8.4,7.6,0.0,0.0,0,1003.2,0,0,"",95
"2019-10-16 01:11:00",8.4,7.6,0.0,0.0,0,1003.2,0,0,"",95
"2019-10-16 01:12:00",8.4,7.6,0.0,0.0,0,1003.1,0,0,"",95
"2019-10-16 01:13:00",8.4,7.6,0.0,0.0,0,1003.1,0,0,"",95
"2019-10-16 01:14:00",8.4,7.6,0.0,0.0,0,1003.1,0,0,"",95
"2019-10-16 01:15:00",8.4,7.6,0.0,0.0,0,1003.1,0,0,"",95
"2019-10-16 01:16:00",8.4,7.6,0.0,0.0,0,1003.1,0,0,"",95
"2019-10-16 01:17:00",8.4,7.6,0.0,0.0,0,1003.1,0,0,"",95
"2019-10-16 01:18:00",8.4,7.6,0.0,0.0,0,1003.1,0,0,"",95
"2019-10-16 01:19:00",8.5,7.7,0.0,0.0,0,1003.1,0,0,"",95
"2019-10-16 01:20:00",8.6,7.8,0.0,0.0,0,1003.1,0,0,"",95
"2019-10-16 01:21:00",8.5,7.7,0.0,0.0,0,1003.1,0,0,"",95
"2019-10-16 01:22:00",8.5,7.7,0.0,0.0,0,1003.1,0,0,"",95
"2019-10-16 01:23:00",8.6,7.8,0.0,0.0,0,1003.1,0,0,"",95
"2019-10-16 01:24:00",8.6,7.8,0.0,0.0,0,1003.1,0,0,"",95
"2019-10-16 01:25:00",8.6,7.8,0.0,0.0,0,1003.1,0,0,"",95
"2019-10-16 01:26:00",8.6,7.8,0.0,0.0,0,1003.1,0,0,"",95
"2019-10-16 01:27:00",8.6,7.8,0.0,0.0,0,1003.0,0,0,"",95
"2019-10-16 01:28:00",8.6,7.8,0.0,0.0,0,1003.0,0,0,"",95
"2019-10-16 01:29:00",8.6,7.8,0.0,0.0,0,1003.0,0,0,"",95
"2019-10-16 01:30:00",8.6,7.8,0.0,0.0,0,1003.0,0,0,"",95
"2019-10-16 01:31:00",8.6,7.8,0.0,0.0,0,1003.0,0,0,"",95
"2019-10-16 01:32:00",8.6,7.8,0.0,0.0,0,1002.9,0,0,"",95
"2019-10-16 01:33:00",8.7,7.9,0.0,0.0,0,1002.9,0,0,"",95
"2019-10-16 01:34:00",8.7,7.9,0.0,0.0,0,1002.9,0,0,"",95
"2019-10-16 01:35:00",8.7,7.9,0.0,0.0,0,1002.9,0,0,"",95
"2019-10-16 01:36:00",8.7,7.9,0.0,0.0,0,1002.9,0,0,"",95
"2019-10-16 01:37:00",8.7,7.9,0.0,0.0,0,1002.9,0,0,"",95
"2019-10-16 01:38:00",8.7,7.9,0.0,0.0,0,1002.8,0,0,"",95
"2019-10-16 01:39:00",8.7,7.9,0.0,0.0,0,1002.8,0,0,"",95
"2019-10-16 01:40:00",8.7,7.9,0.0,0.0,0,1002.8,0,0,"",95
"2019-10-16 01:41:00",8.7,7.9,0.0,0.0,0,1002.8,0,0,"",95
"2019-10-16 01:42:00",8.7,7.9,0.0,0.0,0,1002.8,0,0,"",95
"2019-10-16 01:43:00",8.7,7.9,0.0,0.0,0,1002.8,0,0,"",95
"2019-10-16 01:44:00",8.8,8.0,0.0,0.0,0,1002.8,0,0,"",95
"2019-10-16 01:45:00",8.8,8.0,0.0,0.0,0,1002.7,0,0,"",95
"2019-10-16 01:46:00",8.8,8.0,0.0,0.0,0,1002.7,0,1,"",95
"2019-10-16 01:47:00",8.8,8.0,0.0,0.0,0,1002.7,0,0,"",95
"2019-10-16 01:48:00",8.8,8.2,0.0,0.0,0,1002.7,0,0,"",96
"2019-10-16 01:49:00",8.9,8.3,0.0,0.0,0,1002.7,0,0,"",96
"2019-10-16 01:50:00",8.9,8.3,0.0,0.0,0,1002.7,0,0,"",96
"2019-10-16 01:51:00",8.9,8.3,0.0,0.0,0,1002.7,0,0,"",96
"2019-10-16 01:52:00",8.9,8.3,0.0,0.0,0,1002.6,0,2,"",96
"2019-10-16 01:53:00",8.9,8.3,0.0,0.0,0,1002.6,0,0,"",96
"2019-10-16 01:54:00",9.1,8.5,0.0,0.0,0,1002.6,0,2,"",96
"2019-10-16 01:55:00",9.1,8.5,0.0,0.0,0,1002.6,0,1,"",96
"2019-10-16 01:56:00",9.1,8.5,0.0,0.0,0,1002.5,0,0,"",96
"2019-10-16 01:57:00",9.1,8.5,0.0,0.0,0,1002.5,0,2,"",96
"2019-10-16 01:58:00",9.2,8.6,0.0,0.0,0,1002.5,0,0,"",96
"2019-10-16 01:59:00",9.2,8.6,0.0,0.0,0,1002.5,0,2,"",96
"2019-10-16 02:00:00",9.2,8.6,0.0,0.0,0,1002.5,0,0,"",96
"2019-10-16 02:01:00",9.3,8.7,0.0,0.0,0,1002.5,0,1,"",96
"2019-10-16 02:02:00",9.3,8.7,0.0,0.0,0,1002.4,0,0,"",96
"2019-10-16 02:03:00",9.3,8.7,0.0,0.0,0,1002.5,0,0,"",96
"2019-10-16 02:04:00",9.4,8.8,0.0,0.0,0,1002.4,0,0,"",96
"2019-10-16 02:05:00",9.4,8.8,0.0,0.0,0,1002.4,0,0,"",96
"2019-10-16 02:06:00",9.5,8.9,0.0,0.0,0,1002.4,0,0,"",96
"2019-10-16 02:07:00",9.6,9.0,0.0,0.0,0,1002.4,0,0,"",96
"2019-10-16 02:08:00",9.6,9.0,0.0,0.0,0,1002.4,0,1,"",96
"2019-10-16 02:09:00",9.7,9.1,0.0,0.0,0,1002.3,0,0,"",96
"2019-10-16 02:10:00",9.7,9.2,0.0,0.0,0,1002.3,0,0,"",97
"2019-10-16 02:11:00",9.8,9.3,0.0,0.0,0,1002.3,0,0,"",97
"2019-10-16 02:12:00",9.8,9.2,0.0,0.0,0,1002.3,0,1,"",96
"2019-10-16 02:13:00",9.9,9.3,0.0,0.0,0,1002.3,0,4,9.1,96
"2019-10-16 02:14:00",9.9,9.4,0.0,0.0,0,1002.3,0,1,"",97
"2019-10-16 02:15:00",10.0,9.5,0.0,0.0,0,1002.3,0,0,"",97
"2019-10-16 02:16:00",10.1,9.6,0.0,0.0,0,1002.3,0,1,"",97
"2019-10-16 02:17:00",10.1,9.6,0.0,0.0,0,1002.2,0,2,"",97
"2019-10-16 02:18:00",10.1,9.6,0.0,0.0,0,1002.2,0,4,"",97
"2019-10-16 02:19:00",10.2,9.7,0.0,0.0,0,1002.2,0,0,"",97
"2019-10-16 02:20:00",10.3,9.8,0.0,0.0,0,1002.2,0,2,"",97
"2019-10-16 02:21:00",10.3,9.8,0.0,0.0,0,1002.1,0,2,"",97
"2019-10-16 02:22:00",10.4,9.9,0.0,0.0,0,1002.1,1,4,"",97
"2019-10-16 02:23:00",10.6,10.1,0.0,0.0,0,1002.1,0,0,"",97
"2019-10-16 02:24:00",10.6,10.1,0.0,0.0,0,1002.0,0,3,"",97
"2019-10-16 02:25:00",10.7,10.2,0.0,0.0,0,1002.1,0,2,"",97
"2019-10-16 02:26:00",10.7,10.2,0.0,0.0,0,1002.1,1,3,"",97
"2019-10-16 02:27:00",10.8,10.3,0.0,0.0,0,1002.0,0,2,"",97
"2019-10-16 02:28:00",10.9,10.4,0.0,0.0,0,1002.1,1,2,"",97
"2019-10-16 02:29:00",11.0,10.5,0.0,0.0,0,1002.0,0,1,"",97
"2019-10-16 02:30:00",11.1,10.6,0.0,0.0,0,1002.0,0,0,"",97
"2019-10-16 02:31:00",11.1,10.6,0.0,0.0,0,1002.0,0,0,"",97
"2019-10-16 02:32:00",11.1,10.6,0.0,0.0,0,1002.0,0,2,"",97
"2019-10-16 02:33:00",11.2,10.7,0.0,0.0,0,1002.0,0,1,"",97
"2019-10-16 02:34:00",11.3,10.8,0.0,0.0,0,1002.0,0,0,"",97
"2019-10-16 02:35:00",11.3,10.8,0.0,0.0,0,1002.0,0,3,"",97
"2019-10-16 02:36:00",11.4,10.9,0.0,0.0,0,1001.9,0,2,"",97
"2019-10-16 02:37:00",11.4,10.9,0.0,0.0,0,1001.9,0,0,"",97
"2019-10-16 02:38:00",11.5,11.0,0.0,0.0,0,1001.8,0,0,"",97
"2019-10-16 02:39:00",11.6,11.1,0.0,0.0,0,1001.8,0,0,"",97
"2019-10-16 02:40:00",11.6,11.1,0.0,0.0,0,1001.8,0,0,"",97
"2019-10-16 02:41:00",11.7,11.2,0.0,0.0,0,1001.8,0,0,"",97
"2019-10-16 02:42:00",11.7,11.2,0.0,0.0,0,1001.8,0,0,"",97
"2019-10-16 02:43:00",11.8,11.3,0.0,0.0,0,1001.8,1,5,"",97
"2019-10-16 02:44:00",11.9,11.6,0.0,0.0,0,1001.7,1,4,"",98
"2019-10-16 02:45:00",12.0,11.7,0.0,0.0,0,1001.7,0,3,"",98
"2019-10-16 02:46:00",12.1,11.8,0.0,0.0,0,1001.7,0,1,"",98
"2019-10-16 02:47:00",12.1,11.6,0.0,0.0,0,1001.7,0,2,"",97
"2019-10-16 02:48:00",12.2,11.7,0.0,0.0,0,1001.7,0,2,"",97
"2019-10-16 02:49:00",12.2,11.7,0.0,0.0,0,1001.6,0,0,"",97
"2019-10-16 02:50:00",12.3,12.0,0.0,0.0,0,1001.6,0,0,"",98
"2019-10-16 02:51:00",12.3,12.0,0.0,0.0,0,1001.6,0,1,"",98
"2019-10-16 02:52:00",12.3,11.8,0.0,0.0,0,1001.6,0,2,"",97
"2019-10-16 02:53:00",12.4,11.9,0.0,0.0,0,1001.6,0,2,"",97
"2019-10-16 02:54:00",12.4,11.9,0.0,0.0,0,1001.6,0,4,"",97
"2019-10-16 02:55:00",12.4,11.9,0.0,0.0,0,1001.7,0,4,"",97
"2019-10-16 02:56:00",12.5,12.0,0.0,0.0,0,1001.6,2,6,"",97
"2019-10-16 02:57:00",12.6,12.3,0.0,0.0,0,1001.6,0,2,"",98
"2019-10-16 02:58:00",12.6,12.3,0.0,0.0,0,1001.6,0,0,"",98
"2019-10-16 02:59:00",12.6,12.3,0.0,0.0,0,1001.5,0,2,"",98
"2019-10-16 03:00:00",12.7,12.4,0.0,0.0,0,1001.5,0,1,"",98
"2019-10-16 03:01:00",12.7,12.2,0.0,0.0,0,1001.4,0,1,"",97
"2019-10-16 03:02:00",12.7,12.2,0.0,0.0,0,1001.4,0,0,"",97
"2019-10-16 03:03:00",12.7,12.2,0.0,0.0,0,1001.5,1,6,"",97
"2019-10-16 03:04:00",12.7,12.2,0.0,0.0,0,1001.4,0,1,"",97
"2019-10-16 03:05:00",12.8,12.3,0.0,0.0,0,1001.5,1,4,"",97
"2019-10-16 03:06:00",12.8,12.3,0.0,0.0,0,1001.4,3,13,"",97
"2019-10-16 03:07:00",12.8,12.3,0.0,0.0,0,1001.4,1,8,"",97
"2019-10-16 03:08:00",12.9,12.4,0.0,0.0,0,1001.5,0,2,"",97
"2019-10-16 03:09:00",12.9,12.6,0.0,0.0,0,1001.4,0,0,"",98
"2019-10-16 03:10:00",12.9,12.6,0.0,0.0,0,1001.4,0,1,"",98
"2019-10-16 03:11:00",12.9,12.4,0.0,0.0,0,1001.5,0,0,"",97
"2019-10-16 03:12:00",12.9,12.4,0.0,0.0,0,1001.4,0,0,"",97
"2019-10-16 03:13:00",12.9,12.4,0.0,0.0,0,1001.4,0,1,"",97
"2019-10-16 03:14:00",12.9,12.4,0.0,0.0,0,1001.4,0,7,"",97
"2019-10-16 03:15:00",12.9,12.4,0.0,0.0,0,1001.4,1,7,"",97
"2019-10-16 03:16:00",13.0,12.5,0.0,0.0,0,1001.4,1,8,"",97
"2019-10-16 03:17:00",13.0,12.5,0.0,0.0,0,1001.3,2,9,"",97
"2019-10-16 03:18:00",13.0,12.5,0.0,0.0,0,1001.3,0,0,"",97
"2019-10-16 03:19:00",13.1,12.6,0.0,0.0,0,1001.3,0,1,"",97
"2019-10-16 03:20:00",13.0,12.5,0.0,0.0,0,1001.3,0,2,"",97
"2019-10-16 03:21:00",13.0,12.5,0.0,0.0,0,1001.3,1,5,"",97
"2019-10-16 03:22:00",13.0,12.5,0.0,0.0,0,1001.3,0,0,"",97
"2019-10-16 03:23:00",13.0,12.5,0.0,0.0,0,1001.3,1,3,"",97
"2019-10-16 03:24:00",13.1,12.6,0.0,0.0,0,1001.3,2,8,"",97
"2019-10-16 03:25:00",13.1,12.6,0.0,0.0,0,1001.2,0,2,"",97
"2019-10-16 03:26:00",13.1,12.6,0.0,0.0,0,1001.2,0,2,"",97
"2019-10-16 03:27:00",13.1,12.6,0.0,0.0,0,1001.2,1,4,"",97
"2019-10-16 03:28:00",13.1,12.6,0.0,0.0,0,1001.2,0,1,"",97
"2019-10-16 03:29:00",13.1,12.6,0.0,0.0,0,1001.1,0,1,"",97
"2019-10-16 03:30:00",13.1,12.6,0.0,0.0,0,1001.1,1,5,"",97
"2019-10-16 03:31:00",13.1,12.6,0.0,0.0,0,1001.1,0,1,"",97
"2019-10-16 03:32:00",13.1,12.6,0.0,0.0,0,1001.0,0,1,"",97
"2019-10-16 03:33:00",13.1,12.6,0.0,0.0,0,1001.0,0,2,"",97
"2019-10-16 03:34:00",13.1,12.6,0.0,0.0,0,1000.9,0,2,"",97
"2019-10-16 03:35:00",13.1,12.6,0.0,0.0,0,1000.9,0,0,"",97
"2019-10-16 03:36:00",13.1,12.6,0.0,0.0,0,1000.9,1,3,"",97
"2019-10-16 03:37:00",13.1,12.6,0.0,0.0,0,1000.9,0,2,"",97
"2019-10-16 03:38:00",13.2,12.7,0.0,0.0,0,1000.9,3,11,"",97
"2019-10-16 03:39:00",13.2,12.7,0.0,0.0,0,1000.9,2,6,"",97
"2019-10-16 03:40:00",13.2,12.7,0.0,0.0,0,1000.8,0,1,"",97
"2019-10-16 03:41:00",13.2,12.7,0.0,0.0,0,1000.9,0,2,"",97
"2019-10-16 03:42:00",13.2,12.7,0.0,0.0,0,1000.8,0,0,"",97
"2019-10-16 03:43:00",13.2,12.7,0.0,0.0,0,1000.8,1,3,"",97
"2019-10-16 03:44:00",13.2,12.7,0.0,0.0,0,1000.8,0,1,"",97
"2019-10-16 03:45:00",13.2,12.7,0.0,0.0,0,1000.8,0,2,"",97
"2019-10-16 03:46:00",13.2,12.7,0.0,0.0,0,1000.7,2,7,"",97
"2019-10-16 03:47:00",13.3,12.8,0.0,0.0,0,1000.8,0,0,"",97
"2019-10-16 03:48:00",13.3,12.8,0.0,0.0,0,1000.8,0,0,"",97
"2019-10-16 03:49:00",13.3,12.8,0.0,0.0,0,1000.7,0,0,"",97
"2019-10-16 03:50:00",13.3,12.8,0.0,0.0,0,1000.7,0,0,"",97
"2019-10-16 03:51:00",13.3,12.8,0.2,0.0,0,1000.7,0,2,"",97
"2019-10-16 03:52:00",13.3,12.8,0.2,0.0,0,1000.7,0,0,"",97
"2019-10-16 03:53:00",13.3,12.8,0.2,0.0,0,1000.7,0,3,"",97
"2019-10-16 03:54:00",13.3,12.8,0.2,0.0,0,1000.7,1,4,"",97
"2019-10-16 03:55:00",13.3,12.8,0.2,0.0,0,1000.7,0,0,"",97
"2019-10-16 03:56:00",13.3,12.8,0.2,0.0,0,1000.6,0,1,"",97
"2019-10-16 03:57:00",13.3,12.8,0.2,0.0,0,1000.6,0,0,"",97
"2019-10-16 03:58:00",13.3,12.8,0.2,0.0,0,1000.6,0,0,"",97
"2019-10-16 03:59:00",13.3,12.8,0.2,0.0,0,1000.6,1,3,"",97
"2019-10-16 04:00:00",13.3,12.8,0.2,0.0,0,1000.5,0,2,"",97
"2019-10-16 04:01:00",13.3,12.8,0.2,0.0,0,1000.5,0,1,"",97
"2019-10-16 04:02:00",13.3,12.8,0.2,0.0,0,1000.5,2,6,"",97
"2019-10-16 04:03:00",13.4,12.9,0.2,0.0,0,1000.4,1,4,"",97
"2019-10-16 04:04:00",13.4,12.9,0.2,0.0,0,1000.4,0,1,"",97
"2019-10-16 04:05:00",13.4,12.9,0.2,0.0,0,1000.4,0,0,"",97
"2019-10-16 04:06:00",13.4,12.9,0.4,0.0,0,1000.4,1,5,"",97
"2019-10-16 04:07:00",13.4,12.9,0.4,0.0,0,1000.3,0,0,"",97
"2019-10-16 04:08:00",13.4,12.9,0.4,0.0,0,1000.3,0,0,"",97
"2019-10-16 04:09:00",13.4,12.9,0.4,0.0,0,1000.3,0,5,"",97
"2019-10-16 04:10:00",13.4,12.9,0.4,0.0,0,1000.3,0,6,"",97
"2019-10-16 04:11:00",13.4,12.9,0.4,0.0,0,1000.2,0,0,"",97
"2019-10-16 04:12:00",13.4,12.9,0.4,0.0,0,1000.3,0,0,"",97
"2019-10-16 04:13:00",13.4,12.9,0.6,0.0,0,1000.2,0,0,"",97
"2019-10-16 04:14:00",13.4,12.9,0.6,0.0,0,1000.2,0,1,"",97
"2019-10-16 04:15:00",13.4,12.9,0.6,0.0,0,1000.2,0,2,"",97
"2019-10-16 04:16:00",13.4,12.9,0.6,0.0,0,1000.2,2,9,"",97
"2019-10-16 04:17:00",13.4,12.9,0.6,0.0,0,1000.2,0,0,"",97
"2019-10-16 04:18:00",13.4,12.9,0.6,0.0,0,1000.2,0,0,"",97
"2019-10-16 04:19:00",13.4,12.9,0.6,0.0,0,1000.2,0,2,"",97
"2019-10-16 04:20:00",13.4,12.9,0.6,0.0,0,1000.1,0,5,"",97
"2019-10-16 04:21:00",13.4,12.9,0.6,0.0,0,1000.1,0,0,"",97
"2019-10-16 04:22:00",13.4,12.9,0.6,0.0,0,1000.2,0,1,"",97
"2019-10-16 04:23:00",13.4,12.9,0.6,0.0,0,1000.1,0,2,"",97
"2019-10-16 04:24:00",13.4,12.9,0.6,0.0,0,1000.1,1,7,"",97
"2019-10-16 04:25:00",13.4,12.9,0.6,0.0,0,1000.1,0,1,"",97
"2019-10-16 04:26:00",13.4,12.9,0.6,0.0,0,1000.1,0,0,"",97
"2019-10-16 04:27:00",13.4,12.9,0.6,0.0,0,1000.0,0,1,"",97
"2019-10-16 04:28:00",13.4,12.9,0.6,0.0,0,1000.0,0,0,"",97
"2019-10-16 04:29:00",13.4,12.9,0.6,0.0,0,1000.1,0,1,"",97
"2019-10-16 04:30:00",13.4,12.9,0.6,0.0,0,1000.1,1,4,"",97
"2019-10-16 04:31:00",13.4,12.9,0.6,0.0,0,1000.0,0,0,"",97
"2019-10-16 04:32:00",13.4,12.9,0.6,0.0,0,1000.0,0,0,"",97
"2019-10-16 04:33:00",13.4,12.9,0.6,0.0,0,999.9,0,0,"",97
"2019-10-16 04:34:00",13.5,13.0,0.6,0.0,0,1000.0,0,2,"",97
"2019-10-16 04:35:00",13.5,13.0,0.6,0.0,0,1000.0,0,1,"",97
"2019-10-16 04:36:00",13.5,13.0,0.6,0.0,0,1000.0,0,2,"",97
"2019-10-16 04:37:00",13.5,13.0,0.8,0.0,0,999.9,1,6,"",97
"2019-10-16 04:38:00",13.5,13.0,0.8,0.0,0,999.9,0,1,"",97
"2019-10-16 04:39:00",13.5,13.0,0.8,0.0,0,999.9,0,1,"",97
"2019-10-16 04:40:00",13.5,13.0,0.8,0.0,0,999.9,0,0,"",97
"2019-10-16 04:41:00",13.5,13.0,0.8,0.0,0,999.9,0,1,"",97
"2019-10-16 04:42:00",13.5,13.0,0.8,0.0,0,999.8,0,2,"",97
"2019-10-16 04:43:00",13.6,13.1,0.8,0.0,0,999.9,1,5,"",97
"2019-10-16 04:44:00",13.6,13.1,0.8,0.0,0,999.8,2,7,"",97
"2019-10-16 04:45:00",13.5,13.0,0.8,0.0,0,999.8,0,4,"",97
"2019-10-16 04:46:00",13.6,13.1,0.8,0.0,0,999.8,0,0,"",97
"2019-10-16 04:47:00",13.6,13.1,0.8,0.0,0,999.8,0,0,"",97
"2019-10-16 04:48:00",13.6,13.1,0.8,0.0,0,999.8,0,0,"",97
"2019-10-16 04:49:00",13.6,13.1,0.8,0.0,0,999.8,1,3,"",97
"2019-10-16 04:50:00",13.6,13.1,0.8,0.0,0,999.8,0,0,"",97
"2019-10-16 04:51:00",13.6,13.1,0.8,0.0,0,999.8,0,1,"",97
"2019-10-16 04:52:00",13.6,13.1,0.8,0.0,0,999.8,0,1,"",97
"2019-10-16 04:53:00",13.6,13.1,0.8,0.0,0,999.8,0,0,"",97
"2019-10-16 04:54:00",13.6,13.1,0.8,0.0,0,999.7,0,0,"",97
"2019-10-16 04:55:00",13.6,13.1,0.8,0.0,0,999.7,0,0,"",97
"2019-10-16 04:56:00",13.6,13.1,0.8,0.0,0,999.7,0,0,"",97
"2019-10-16 04:57:00",13.6,13.1,0.8,0.0,0,999.7,0,2,"",97
"2019-10-16 04:58:00",13.6,13.1,0.8,0.0,0,999.7,0,0,"",97
"2019-10-16 04:59:00",13.6,13.1,0.8,0.0,0,999.7,1,4,"",97
"2019-10-16 05:00:00",13.6,13.1,0.8,0.0,0,999.7,0,0,"",97
"2019-10-16 05:01:00",13.6,13.1,0.8,0.0,0,999.6,0,0,"",97
"2019-10-16 05:02:00",13.7,13.2,0.8,0.0,0,999.6,0,0,"",97
"2019-10-16 05:03:00",13.6,13.1,0.8,0.0,0,999.6,0,0,"",97
"2019-10-16 05:04:00",13.6,13.1,0.8,0.0,0,999.6,1,5,"",97
"2019-10-16 05:05:00",13.6,13.1,0.8,0.0,0,999.6,0,1,"",97
"2019-10-16 05:06:00",13.6,13.1,0.8,0.0,0,999.6,0,1,"",97
"2019-10-16 05:07:00",13.6,13.1,0.8,0.0,0,999.6,0,0,"",97
"2019-10-16 05:08:00",13.7,13.2,0.8,0.0,0,999.6,0,0,"",97
"2019-10-16 05:09:00",13.6,13.1,0.8,0.0,0,999.6,0,0,"",97
"2019-10-16 05:10:00",13.7,13.2,0.8,0.0,0,999.5,0,0,"",97
"2019-10-16 05:11:00",13.6,13.1,0.8,0.0,0,999.6,0,2,"",97
"2019-10-16 05:12:00",13.7,13.2,0.8,0.0,0,999.6,0,2,"",97
"2019-10-16 05:13:00",13.7,13.2,0.8,0.0,0,999.5,0,2,"",97
"2019-10-16 05:14:00",13.7,13.2,0.8,0.0,0,999.6,0,0,"",97
"2019-10-16 05:15:00",13.7,13.2,0.8,0.0,0,999.5,0,1,"",97
"2019-10-16 05:16:00",13.7,13.2,0.8,0.0,0,999.5,0,0,"",97
"2019-10-16 05:17:00",13.7,13.2,1.0,0.0,0,999.5,0,1,"",97
"2019-10-16 05:18:00",13.7,13.2,1.0,0.0,0,999.4,0,2,"",97
"2019-10-16 05:19:00",13.7,13.2,1.0,0.0,0,999.5,0,0,"",97
"2019-10-16 05:20:00",13.7,13.2,1.0,0.0,0,999.4,0,0,"",97
"2019-10-16 05:21:00",13.7,13.2,1.0,0.0,0,999.4,0,1,"",97
"2019-10-16 05:22:00",13.7,13.2,1.0,0.0,0,999.4,0,1,"",97
"2019-10-16 05:23:00",13.7,13.2,1.0,0.0,0,999.4,0,0,"",97
"2019-10-16 05:24:00",13.7,13.2,1.0,0.0,0,999.4,0,0,"",97
"2019-10-16 05:25:00",13.7,13.2,1.0,0.0,0,999.3,0,0,"",97
"2019-10-16 05:26:00",13.7,13.2,1.0,0.0,0,999.3,0,0,"",97
"2019-10-16 05:27:00",13.8,13.3,1.0,0.0,0,999.3,0,1,"",97
"2019-10-16 05:28:00",13.8,13.3,1.0,0.0,0,999.3,0,2,"",97
"2019-10-16 05:29:00",13.7,13.2,1.0,0.0,0,999.3,0,0,"",97
"2019-10-16 05:30:00",13.8,13.3,1.0,0.0,0,999.3,0,0,"",97
"2019-10-16 05:31:00",13.8,13.3,1.0,0.0,0,999.3,1,6,"",97
"2019-10-16 05:32:00",13.8,13.3,1.0,0.0,0,999.2,0,0,"",97
"2019-10-16 05:33:00",13.8,13.3,1.0,0.0,0,999.2,0,0,"",97
"2019-10-16 05:34:00",13.8,13.3,1.0,0.0,0,999.3,0,0,"",97
"2019-10-16 05:35:00",13.8,13.3,1.0,0.0,0,999.2,0,0,"",97
"2019-10-16 05:36:00",13.8,13.3,1.0,0.0,0,999.2,0,1,"",97
"2019-10-16 05:37:00",13.8,13.3,1.0,0.0,0,999.2,0,0,"",97
"2019-10-16 05:38:00",13.8,13.3,1.0,0.0,0,999.2,0,2,"",97
"2019-10-16 05:39:00",13.8,13.3,1.0,0.0,0,999.2,0,1,"",97
"2019-10-16 05:40:00",13.8,13.3,1.0,0.0,0,999.1,0,2,"",97
"2019-10-16 05:41:00",13.8,13.3,1.0,0.0,0,999.1,0,0,"",97
"2019-10-16 05:42:00",13.8,13.3,1.0,0.0,0,999.1,0,0,"",97
"2019-10-16 05:43:00",13.8,13.3,1.0,0.0,0,999.1,0,0,"",97
"2019-10-16 05:44:00",13.8,13.3,1.0,0.0,0,999.1,1,3,"",97
"2019-10-16 05:45:00",13.8,13.3,1.0,0.0,0,999.1,0,0,"",97
"2019-10-16 05:46:00",13.9,13.4,1.0,0.0,0,999.1,0,0,"",97
"2019-10-16 05:47:00",13.9,13.4,1.0,0.0,0,999.0,0,0,"",97
"2019-10-16 05:48:00",13.9,13.4,1.0,0.0,0,999.0,0,0,"",97
"2019-10-16 05:49:00",13.9,13.4,1.0,0.0,0,998.9,0,0,"",97
"2019-10-16 05:50:00",13.9,13.4,1.0,0.0,0,998.9,1,3,"",97
"2019-10-16 05:51:00",13.9,13.4,1.0,0.0,0,998.9,0,3,"",97
"2019-10-16 05:52:00",13.9,13.4,1.0,0.0,0,998.9,2,6,"",97
"2019-10-16 05:53:00",13.9,13.4,1.0,0.0,0,998.9,0,0,"",97
"2019-10-16 05:54:00",13.9,13.4,1.0,0.0,0,998.9,0,1,"",97
"2019-10-16 05:55:00",13.9,13.4,1.0,0.0,0,998.9,0,0,"",97
"2019-10-16 05:56:00",13.9,13.4,1.0,0.0,0,998.9,0,0,"",97
"2019-10-16 05:57:00",13.9,13.4,1.2,0.0,0,998.9,0,0,"",97
"2019-10-16 05:58:00",13.9,13.4,1.2,0.0,0,998.9,0,0,"",97
"2019-10-16 05:59:00",13.9,13.4,1.2,0.0,0,998.8,0,1,"",97
"2019-10-16 06:00:00",13.9,13.4,1.2,0.0,0,998.8,0,5,"",97
"2019-10-16 06:01:00",13.9,13.4,1.2,0.0,0,998.8,0,0,"",97
"2019-10-16 06:02:00",14.0,13.5,1.2,0.0,0,998.8,0,0,"",97
"2019-10-16 06:03:00",14.0,13.5,1.2,0.0,0,998.7,0,0,"",97
"2019-10-16 06:04:00",14.0,13.5,1.2,0.0,0,998.8,0,0,"",97
"2019-10-16 06:05:00",14.0,13.5,1.2,0.0,0,998.7,0,0,"",97
"2019-10-16 06:06:00",14.0,13.5,1.2,0.0,0,998.7,0,0,"",97
"2019-10-16 06:07:00",14.1,13.6,1.2,0.0,0,998.7,0,0,"",97
"2019-10-16 06:08:00",14.1,13.6,1.2,0.0,0,998.6,0,0,"",97
"2019-10-16 06:09:00",14.0,13.5,1.2,0.0,0,998.6,0,0,"",97
"2019-10-16 06:10:00",14.1,13.6,1.2,0.0,0,998.6,0,0,"",97
"2019-10-16 06:11:00",14.1,13.6,1.2,0.0,0,998.7,0,0,"",97
"2019-10-16 06:12:00",14.1,13.6,1.2,0.0,0,998.6,0,0,"",97
"2019-10-16 06:13:00",14.1,13.6,1.2,0.0,0,998.7,0,0,"",97
"2019-10-16 06:14:00",14.1,13.6,1.2,0.0,0,998.7,0,0,"",97
"2019-10-16 06:15:00",14.1,13.6,1.2,0.0,0,998.7,0,1,"",97
"2019-10-16 06:16:00",14.1,13.6,1.2,0.0,0,998.7,0,0,"",97
"2019-10-16 06:17:00",14.1,13.6,1.2,0.0,0,998.6,0,0,"",97
"2019-10-16 06:18:00",14.1,13.6,1.4,0.0,0,998.7,0,0,"",97
"2019-10-16 06:19:00",14.1,13.6,1.4,0.0,0,998.6,0,1,"",97
"2019-10-16 06:20:00",14.1,13.6,1.4,0.0,0,998.6,0,0,"",97
"2019-10-16 06:21:00",14.1,13.6,1.4,0.0,0,998.6,0,0,"",97
"2019-10-16 06:22:00",14.2,13.7,1.4,0.0,0,998.6,0,0,"",97
"2019-10-16 06:23:00",14.1,13.6,1.4,0.0,0,998.6,0,0,"",97
"2019-10-16 06:24:00",14.1,13.6,1.4,0.0,0,998.5,0,0,"",97
"2019-10-16 06:25:00",14.1,13.6,1.4,0.0,0,998.6,0,0,"",97
"2019-10-16 06:26:00",14.1,13.6,1.4,0.0,0,998.6,0,0,"",97
"2019-10-16 06:27:00",14.2,13.7,1.4,0.0,0,998.5,0,0,"",97
"2019-10-16 06:28:00",14.1,13.6,1.4,0.0,0,998.6,0,0,"",97
"2019-10-16 06:29:00",14.2,13.7,1.4,0.0,0,998.6,0,0,"",97
"2019-10-16 06:30:00",14.2,13.7,1.4,0.0,0,998.5,0,0,"",97
"2019-10-16 06:31:00",14.2,13.7,1.4,0.0,0,998.6,0,1,"",97
"2019-10-16 06:32:00",14.2,13.7,1.4,0.0,0,998.6,0,0,"",97
"2019-10-16 06:33:00",14.2,13.7,1.4,0.0,0,998.5,0,0,"",97
"2019-10-16 06:34:00",14.2,13.7,1.4,0.0,0,998.5,0,0,"",97
"2019-10-16 06:35:00",14.3,13.8,1.4,0.0,0,998.5,0,0,"",97
"2019-10-16 06:36:00",14.3,13.8,1.4,0.0,0,998.5,0,0,"",97
"2019-10-16 06:37:00",14.3,13.8,1.4,0.0,0,998.5,0,0,"",97
"2019-10-16 06:38:00",14.3,13.8,1.4,0.0,0,998.5,0,0,"",97
"2019-10-16 06:39:00",14.3,13.8,1.4,0.0,0,998.5,0,0,"",97
"2019-10-16 06:40:00",14.3,13.8,1.4,0.0,0,998.5,0,1,"",97
"2019-10-16 06:41:00",14.3,13.8,1.4,0.0,0,998.5,0,2,"",97
"2019-10-16 06:42:00",14.3,13.8,1.4,0.0,0,998.5,0,0,"",97
"2019-10-16 06:43:00",14.3,13.8,1.4,0.0,0,998.5,0,1,"",97
"2019-10-16 06:44:00",14.3,13.8,1.4,0.0,0,998.5,0,0,"",97
"2019-10-16 06:45:00",14.3,13.8,1.4,0.0,0,998.5,0,0,"",97
"2019-10-16 06:46:00",14.3,13.8,1.4,0.0,0,998.5,0,0,"",97
"2019-10-16 06:47:00",14.3,13.8,1.4,0.0,0,998.5,0,0,"",97
"2019-10-16 06:48:00",14.3,13.8,1.4,0.0,0,998.4,0,0,"",97
"2019-10-16 06:49:00",14.3,13.8,1.4,0.0,0,998.4,0,1,"",97
"2019-10-16 06:50:00",14.3,13.8,1.4,0.0,0,998.4,0,1,"",97
"2019-10-16 06:51:00",14.3,13.8,1.4,0.0,0,998.4,0,0,"",97